KF5CFW Weather Reports


time (UTC)temp
C
wind
direction
speed
KPH
gust
KPH
rain 1hr
cm
rain 24hr
cm
rain mn
cm
humidity
%
barometer
mb
20260904143042 28 158 0.0 1.6 0.00 0.00 0.00 3 1013.2
20260904141553 27 153 0.0 1.6 0.00 0.00 0.00 1 1013.3
20260904140033 27 152 0.0 1.6 0.00 0.00 0.00 1 1013.3
20260904134528 27 155 0.0 0.0 0.00 0.00 0.00 1 1013.1
20260904133025 26 155 0.0 0.0 0.00 0.00 0.00 1 1013.0
20260904131519 26 159 0.0 1.6 0.00 0.00 0.00 1 1012.9
20260904130015 26 136 0.0 0.0 0.00 0.00 0.00 1 1012.7
20260904124510 26 136 0.0 0.0 0.00 0.00 0.00 1 1012.6
20260904123005 26 135 0.0 0.0 0.00 0.00 0.00 1 1012.4
20260904121500 26 134 0.0 0.0 0.00 0.00 0.00 1 1012.3
20260904120100 26 136 0.0 0.0 0.00 0.00 0.00 1 1012.2
20260904114553 26 136 0.0 1.6 0.00 0.00 0.00 1 1012.0
20260904113052 26 136 0.0 0.0 0.00 0.00 0.00 1 1012.0
20260904111554 26 136 0.0 0.0 0.00 0.00 0.00 1 1012.1
20260904110045 26 136 0.0 0.0 0.00 0.00 0.00 1 1011.9
20260904104539 26 136 0.0 1.6 0.00 0.00 0.00 1 1011.8
20260904103037 26 136 0.0 0.0 0.00 0.00 0.00 1 1011.7
20260904101529 26 137 0.0 0.0 0.00 0.00 0.00 1 1011.6
20260904100025 26 69 0.0 0.0 0.00 0.00 0.00 1 1011.7
20260904094520 26 68 0.0 1.6 0.00 0.00 0.00 1 1011.7
20260904093016 26 122 0.0 0.0 0.00 0.00 0.00 1 1011.5
20260904091512 26 118 0.0 0.0 0.00 0.00 0.00 1 1011.6
20260904090008 26 129 0.0 0.0 0.00 0.00 0.00 1 1011.6
20260904084504 26 130 0.0 1.6 0.00 0.00 0.00 1 1011.6
20260904083101 26 163 0.0 1.6 0.00 0.00 0.00 1 1011.4
20260904081555 26 152 0.0 0.0 0.00 0.00 0.00 1 1011.4
20260904080050 26 165 0.0 0.0 0.00 0.00 0.00 1 1011.3
20260904074557 26 166 0.0 1.6 0.00 0.00 0.00 1 1011.4
20260904073043 26 167 0.0 1.6 0.00 0.00 0.00 1 1011.4
20260904071537 26 130 0.0 1.6 0.00 0.00 0.00 1 1011.7
20260904070033 26 148 0.0 1.6 0.00 0.00 0.00 5 1011.7
20260904064532 26 145 0.0 1.6 0.00 0.00 0.00 6 1011.8
20260904063043 26 155 0.0 1.6 0.00 0.00 0.00 8 1011.7
20260904061532 26 156 0.0 1.6 0.00 0.00 0.00 10 1011.8
20260904060036 26 132 0.0 0.0 0.00 0.00 0.00 12 1011.8
20260904054527 26 111 0.0 1.6 0.00 0.00 0.00 16 1011.8
20260904053031 26 160 0.0 1.6 0.00 0.00 0.00 21 1011.7
20260904051520 27 170 0.0 1.6 0.00 0.00 0.00 28 1011.7
20260904050017 27 165 0.0 1.6 0.00 0.00 0.00 36 1011.5
20260904044529 27 104 0.0 1.6 0.00 0.00 0.00 43 1011.7
20260904043008 27 132 0.0 1.6 0.00 0.00 0.00 50 1011.6
20260904041507 27 156 0.0 1.6 0.00 0.00 0.00 54 1011.7
20260904040007 27 87 0.0 1.6 0.00 0.00 0.00 55 1011.7
20260904034507 27 160 0.0 1.6 0.00 0.00 0.00 54 1011.6
20260904033005 27 138 0.0 0.0 0.00 0.00 0.00 53 1011.6
20260904031505 27 112 0.0 1.6 0.00 0.00 0.00 52 1011.6
20260904030005 28 136 0.0 1.6 0.00 0.00 0.00 50 1011.3
20260904024501 28 129 0.0 1.6 0.00 0.00 0.00 51 1011.2
20260904023106 28 159 0.0 0.0 0.00 0.00 0.00 51 1011.0
20260904021552 28 168 0.0 1.6 0.00 0.00 0.00 55 1010.8
20260904020048 28 134 0.0 6.4 0.00 0.00 0.00 57 1010.5
20260904014546 29 152 0.0 3.2 0.00 0.00 0.00 55 1010.1
20260904013039 30 158 0.0 1.6 0.00 0.00 0.00 57 1009.9
20260904011541 30 34 0.0 4.8 0.00 0.00 0.00 59 1009.7
20260904010049 30 135 0.0 3.2 0.00 0.00 0.00 58 1009.6
20260904004531 30 164 0.0 1.6 0.00 0.00 0.00 58 1009.7
20260904003025 31 157 0.0 3.2 0.00 0.00 0.00 58 1009.5
20260904001520 31 156 0.0 3.2 0.00 0.00 0.00 58 1009.6
20260904000019 31 158 0.0 1.6 0.00 0.00 0.00 58 1009.5
20260903234513 32 159 0.0 1.6 0.00 0.00 0.00 57 1009.3
20260903233008 32 172 0.0 4.8 0.00 0.00 0.00 56 1009.2
20260903231503 33 151 0.0 1.6 0.00 0.00 0.00 55 1009.1
20260903224606 35 65 0.0 3.2 0.00 0.00 0.00 53 1009.0
20260903223051 35 155 0.0 3.2 0.00 0.00 0.00 53 1009.0
20260903221546 35 148 0.0 4.8 0.00 0.00 0.00 51 1009.0
20260903220051 36 167 0.0 4.8 0.00 0.00 0.00 50 1008.9
20260903214541 36 101 0.0 1.6 0.00 0.00 0.00 51 1009.0
20260903213039 35 166 0.0 4.8 0.00 0.00 0.00 52 1009.2
20260903211555 34 151 0.0 1.6 0.00 0.00 0.00 54 1009.3
20260903210024 33 163 0.0 4.8 0.00 0.00 0.00 57 1009.5
20260903204520 33 159 0.0 1.6 0.00 0.00 0.00 57 1009.9
20260903203016 33 129 0.0 3.2 0.00 0.00 0.00 58 1009.9
20260903201511 33 168 0.0 6.4 0.00 0.00 0.00 57 1010.1
20260903200007 33 67 0.0 1.6 0.00 0.00 0.00 57 1010.1
20260903194502 34 203 0.0 3.2 0.00 0.00 0.00 56 1010.3
20260903193058 33 194 0.0 3.2 0.00 0.00 0.00 57 1010.4
20260903191553 33 60 0.0 4.8 0.00 0.00 0.00 58 1010.5
20260903190049 32 210 0.0 4.8 0.00 0.00 0.00 58 1010.8
20260903184545 32 160 0.0 4.8 0.00 0.00 0.00 58 1011.1
20260903183041 31 134 0.0 6.4 0.00 0.00 0.00 57 1011.3
20260903181535 32 146 0.0 4.8 0.00 0.00 0.00 58 1011.4
20260903180033 32 148 0.0 6.4 0.00 0.00 0.00 58 1011.5
20260903174544 31 162 0.0 4.8 0.00 0.00 0.00 57 1011.6
20260903173026 31 150 0.0 4.8 0.00 0.00 0.00 55 1011.9
20260903171518 31 139 0.0 3.2 0.00 0.00 0.00 53 1011.9
20260903170014 30 160 0.0 3.2 0.00 0.00 0.00 48 1012.0
20260903164509 30 161 0.0 3.2 0.00 0.00 0.00 47 1011.9
20260903163005 30 155 0.0 3.2 0.00 0.00 0.00 44 1012.0
20260903161600 30 151 0.0 1.6 0.00 0.00 0.00 42 1012.1
20260903160056 29 278 0.0 1.6 0.00 0.00 0.00 39 1012.1
20260903154556 28 49 0.0 1.6 0.00 0.00 0.00 28 1012.2
20260903153053 28 153 0.0 1.6 0.00 0.00 0.00 16 1012.1
20260903151550 27 167 0.0 1.6 0.00 0.00 0.00 8 1012.1
20260903150039 27 106 0.0 0.0 0.00 0.00 0.00 3 1012.0
20260903144535 27 155 0.0 0.0 0.00 0.00 0.00 5 1012.3